Probability
0 0 0 0 0 0 0 0 0 0 0 0 1 4 20 47 51 25 6 2 0 0 0 0 0 0 0 0 0 0 0 0 0 0 0 0 0 0 0 0 0 0 0 0
0 0 0 0 0 0 0 0 0 0 2 3 4 9 29 54 51 23 5 1 0 0 0 0 0 0 0 0 0 0 0 0 0 0 0 0 0 0 0 0 0 0 0 0
0 0 0 0 0 0 0 0 2 4 9 13 15 21 40 56 46 21 5 1 0 0 0 0 0 0 0 0 0 0 0 0 0 0 0 0 0 0 0 0 0 0 0 0
0 0 0 0 0 0 0 1 3 8 14 18 20 25 35 40 32 16 5 1 0 0 0 0 0 0 0 0 0 0 0 0 0 0 0 0 0 0 0 0 0 0 0 0
0 0 0 0 0 0 0 0 2 6 9 10 10 13 16 16 13 8 3 0 0 0 0 0 0 0 0 0 0 0 0 0 0 0 0 0 0 0 0 0 0 0 0 0
0 0 0 0 0 0 0 0 0 1 2 1 1 2 3 3 2 1 0 0 0 0 0 0 0 0 0 0 0 0 0 0 0 0 0 0 0 0 0 0 0 0 0 0
0 0 0 0 0 0 0 0 0 0 0 0 0 1 1 0 0 0 0 0 0 0 0 0 0 0 0 0 0 0 0 0 0 0 0 0 0 0 0 0 0 0 0 0
0 0 0 0 0 0 0 0 0 0 0 0 0 0 0 0 0 0 0 0 0 0 0 0 0 0 0 0 0 0 0 0 0 0 0 0 0 0 0 0 0 0 0 0
0 0 0 0 0 0 0 0 0 0 0 0 0 0 0 0 0 0 0 0 0 0 0 0 0 0 0 0 0 0 0 0 0 0 0 0 0 0 0 0 0 0 0 0
0 0 0 0 0 0 0 0 0 0 0 0 0 0 0 0 0 0 0 0 0 0 0 0 0 0 0 0 0 0 0 0 0 0 0 0 0 0 0 0 0 0 0 0
0 0 0 0 0 0 0 0 0 0 0 0 0 0 0 0 0 0 0 0 0 0 0 0 0 0 0 0 0 0 0 0 0 0 0 0 0 0 0 0 0 0 0 0
0 0 0 0 0 0 0 0 0 0 0 0 0 0 0 0 0 0 0 0 0 0 0 0 0 0 0 0 0 0 0 0 0 0 0 0 0 0 0 0 0 0 0 0
0 0 0 0 0 0 0 0 0 0 0 0 0 0 0 0 0 0 0 0 0 0 0 0 0 0 0 0 0 0 0 0 0 0 0 0 0 0 0 0 0 0 0 0
0 0 0 0 0 0 0 0 0 0 0 0 0 0 0 0 0 0 0 0 0 0 0 0 0 0 0 0 0 0 0 0 0 0 0 0 0 0 0 0 0 0 0 0
0 0 0 0 0 0 0 0 0 0 0 0 0 0 0 0 0 0 0 0 0 0 0 0 0 0 0 0 0 0 0 0 0 0 0 0 0 0 0 0 0 0 0 0
0 0 0 0 0 0 0 0 0 0 0 0 0 0 0 0 0 0 0 0 0 0 0 0 0 0 0 0 0 0 0 0 0 0 0 0 0 0 0 0 0 0 0 0
0 0 0 0 0 0 0 0 0 0 0 0 0 0 0 0 0 0 0 0 0 0 0 0 0 0 0 0 0 0 0 0 0 0 0 0 0 0 0 0 0 0 0 0
0 0 0 0 0 0 0 0 0 0 0 0 0 0 0 0 0 0 0 0 0 0 0 0 0 0 0 0 0 0 0 0 0 0 0 0 0 0 0 0 0 0 0 0
0 0 0 0 0 0 0 0 0 0 0 0 0 0 0 0 0 0 0 0 0 0 0 0 0 0 0 0 0 0 0 0 0 0 0 0 0 0 0 0 0 0 0 0
0 0 0 0 0 0 0 0 0 0 0 0 0 0 0 0 0 0 0 0 0 0 0 0 0 0 0 0 0 0 0 0 0 0 0 0 0 0 0 0 0 0 0 0
0 0 0 0 0 0 0 0 0 0 0 0 0 0 0 0 0 0 0 0 0 0 0 0 0 0 0 0 0 0 0 0 0 0 0 0 0 0 0 0 0 0 0 0
0 0 0 0 0 0 0 0 0 0 0 0 0 0 0 0 0 0 0 0 0 0 0 0 0 0 0 0 0 0 0 0 0 0 0 0 0 0 0 0 0 0 0 0
0 0 0 0 0 0 0 0 0 0 0 0 0 0 0 0 0 0 0 0 0 0 0 0 0 0 0 0 0 0 0 0 0 0 0 0 0 0 0 0 0 0 0 0
0 0 0 0 0 0 0 0 0 0 0 0 0 0 0 0 0 0 0 0 0 0 0 0 0 0 0 0 0 0 0 0 0 0 0 0 0 0 0 0 0 0 0 0
0 0 0 0 0 0 0 0 0 0 0 0 0 0 0 0 0 0 0 0 0 0 0 0 0 0 0 0 0 0 0 0 0 0 0 0 0 0 0 0 0 0 0 0
0 0 0 0 0 0 0 0 0 0 0 0 0 0 0 0 0 0 0 0 0 0 0 0 0 0 0 0 0 0 0 0 0 0 0 0 0 0 0 0 0 0 0 0
0 0 0 0 0 0 0 0 0 0 0 0 0 0 0 0 0 0 0 0 0 0 0 0 0 0 0 0 0 0 0 0 0 0 0 0 0 0 0 0 0 0 0 0
Wind_Speed
10 8 8 10 9 9 10 12 12 11 9 6 7 4 3 9 13 14 15 15 15 14 12 10 9 8 8 7 6 4 4 4 4 2 2 4 6 8 8 8 9 10 10 10
13 13 12 14 14 14 14 14 15 15 13 6 6 3 4 9 13 13 13 14 14 13 12 10 9 8 8 6 4 4 4 3 3 2 4 5 6 6 6 6 7 7 8 9
12 11 12 17 12 11 12 12 11 12 10 10 8 4 4 8 12 13 13 14 14 12 10 8 8 8 6 5 4 4 3 1 1 3 5 5 5 5 6 6 6 7 8 9
10 8 12 1 7 6 7 4 9 9 10 11 9 5 3 2 9 12 13 14 13 12 10 8 7 6 6 6 5 3 2 1 3 4 4 5 5 6 6 6 6 7 7 8
8 10 9 4 6 7 6 1 11 11 10 8 5 2 4 5 3 8 12 14 13 12 10 7 7 7 6 5 4 2 2 4 5 5 5 5 5 6 6 6 6 7 7 7
8 8 7 4 8 6 6 5 11 13 11 8 5 3 5 9 13 16 16 14 13 11 9 6 6 6 5 4 3 3 5 6 6 6 5 5 5 5 5 5 6 7 7 7
9 8 5 7 8 7 8 4 13 13 11 7 3 5 9 13 15 15 16 15 12 10 8 7 6 5 4 4 5 6 6 7 6 5 4 4 4 4 5 6 6 7 8 8
7 9 2 9 8 7 10 13 12 11 8 3 6 11 13 14 15 15 15 13 10 9 9 7 5 4 5 6 6 6 7 6 5 4 4 4 4 4 5 6 7 8 8 8
4 3 6 5 7 9 11 12 11 8 3 7 11 13 14 14 14 13 12 11 11 12 10 7 5 4 7 7 6 7 6 5 4 4 4 5 4 5 5 6 6 7 7 8
7 5 7 9 8 9 11 11 8 4 4 11 14 15 15 14 12 12 13 13 12 11 10 8 6 7 7 7 7 6 5 4 4 4 5 6 5 6 6 6 7 7 8 9
10 10 8 5 7 11 9 5 2 7 11 14 16 15 14 13 13 13 12 11 10 9 9 9 8 8 8 7 6 6 5 4 4 5 6 5 6 6 7 7 7 7 7 7
7 7 8 9 9 8 3 5 10 14 15 15 15 16 15 13 13 12 11 10 9 9 9 9 10 9 8 7 6 5 5 5 5 5 6 6 5 4 3 3 3 5 6 7
8 9 8 7 4 4 7 11 13 15 16 16 15 14 14 13 12 11 11 10 9 9 10 10 10 9 8 7 7 7 6 6 6 6 6 5 6 6 6 3 2 2 5 10
6 5 3 1 6 10 13 14 15 15 15 15 14 13 13 13 12 11 10 10 9 10 10 10 10 9 8 7 7 7 7 6 6 6 6 6 6 6 5 6 7 6 6 9
1 2 5 9 12 13 13 14 15 15 15 15 14 13 13 13 12 11 10 9 10 10 10 10 10 9 7 7 7 8 8 7 6 6 6 6 5 5 5 6 6 7 8 9
6 9 10 11 12 11 12 14 14 14 14 14 13 13 12 12 11 10 9 9 9 10 9 9 9 8 7 6 7 7 8 7 6 5 6 5 5 5 5 5 5 6 7 9
9 10 10 10 10 10 11 12 13 13 13 13 13 12 12 12 11 10 9 9 9 9 8 9 8 7 6 6 5 5 6 5 0 5 7 6 6 6 6 6 6 6 6 8
10 10 9 9 10 11 12 13 13 14 13 13 12 12 11 11 10 10 9 9 10 10 9 8 8 7 6 6 5 5 5 6 6 7 7 8 7 7 8 8 8 8 7 7
12 12 12 11 11 12 13 14 14 13 13 12 11 11 11 10 10 9 9 10 10 10 9 9 5 6 7 6 3 4 5 6 6 6 6 6 7 8 8 8 9 9 8 8
12 12 13 12 12 13 13 14 14 12 11 11 12 12 11 11 10 10 10 9 9 9 8 7 6 6 6 5 5 4 5 6 7 7 7 7 8 8 8 9 9 10 9 9
10 12 13 13 13 13 13 13 12 11 10 11 11 11 11 10 9 8 9 10 9 9 8 5 4 5 5 3 3 5 7 7 7 7 7 7 8 8 8 9 9 9 9 9
9 10 12 12 11 11 11 10 10 10 9 9 10 11 10 9 8 7 9 8 9 4 5 6 7 8 4 3 6 8 8 8 7 7 7 7 8 8 8 9 9 9 9 9
8 10 11 11 11 11 10 10 10 9 9 9 9 9 9 8 6 7 8 8 7 4 6 9 8 3 4 2 7 7 8 8 7 7 7 7 7 8 8 9 8 8 8 9
8 9 10 10 10 11 11 10 9 7 8 8 8 9 9 7 6 7 9 9 7 6 9 9 5 0 3 5 7 7 7 7 7 8 8 8 8 8 8 8 8 8 8 10
9 10 10 10 9 9 10 9 9 8 8 8 9 8 7 6 7 8 9 10 10 9 10 7 3 3 3 7 7 8 9 8 8 8 8 8 8 8 8 8 8 8 9 9
11 9 9 8 7 7 8 8 7 6 6 7 7 7 7 7 9 8 8 10 11 10 9 7 6 4 7 8 8 8 7 6 7 7 9 8 9 9 8 8 10 9 9 9
11 10 8 8 7 7 7 7 7 7 6 7 8 8 8 8 8 9 10 9 9 8 7 6 6 7 7 7 7 7 7 7 7 7 7 7 7 7 8 9 8 8 8 9
Wind_Direction
276 285 286 284 279 274 268 279 284 289 291 330 1 330 208 170 156 160 164 165 162 155 147 142 137 127 114 109 112 119 116 103 94 66 340 307 304 305 307 309 310 314 317 318
264 259 267 272 268 269 272 276 277 278 280 11 7 330 202 173 163 167 169 165 156 147 143 137 129 117 110 112 124 130 113 99 76 346 317 320 325 332 341 350 352 346 341 335
265 264 275 262 274 284 279 285 301 294 332 354 333 310 245 191 173 172 168 158 149 142 135 127 120 118 122 137 140 134 121 88 347 334 339 355 10 24 20 7 355 344 341 337
259 252 249 34 40 351 305 24 10 351 350 346 344 350 336 211 180 169 158 145 136 129 119 118 121 128 141 139 132 132 117 14 6 8 34 52 44 29 10 355 348 342 342 338
251 245 258 187 51 1 317 108 31 5 358 355 1 10 47 33 103 123 120 118 116 113 115 127 134 137 134 123 123 126 52 30 35 54 68 51 32 16 3 352 352 340 349 337
234 244 245 70 25 340 269 218 32 4 355 347 318 304 70 74 89 96 103 106 108 112 120 126 122 119 119 121 117 67 49 61 75 72 57 40 26 6 4 351 352 343 347 337
230 237 249 53 353 303 253 358 1 346 343 338 349 47 93 100 100 103 106 108 113 120 123 117 116 117 119 105 68 61 78 92 85 72 56 34 21 6 350 350 0 349 340 334
229 237 219 35 356 345 333 329 323 325 335 29 101 107 106 107 108 109 110 113 120 120 114 113 126 135 111 74 72 89 100 98 83 52 21 21 8 355 0 1 358 352 344 341
274 303 27 357 327 318 311 306 306 307 325 134 127 119 115 112 110 113 119 126 130 127 130 141 149 117 84 81 95 108 109 93 67 45 34 16 2 14 21 12 0 355 353 351
273 276 319 323 318 321 319 310 305 302 141 134 125 121 119 117 120 128 133 135 139 140 136 128 112 86 83 97 109 114 99 77 58 41 46 52 26 25 22 13 8 4 358 348
270 285 294 295 329 330 324 326 80 111 119 122 121 121 122 126 131 131 132 134 135 128 121 112 101 95 98 106 112 100 81 63 54 55 50 46 49 36 20 37 17 353 349 339
288 332 315 314 333 334 352 105 116 116 114 117 122 126 129 128 127 127 126 126 123 120 113 106 103 101 100 101 89 74 69 57 52 53 48 37 33 61 103 36 357 325 327 331
295 310 305 313 355 52 101 111 116 118 119 120 120 121 121 121 122 122 123 123 120 114 108 108 106 102 97 88 75 65 57 45 47 44 43 38 28 18 17 27 16 356 357 351
299 278 261 98 95 101 107 111 112 110 111 113 117 121 123 124 125 122 118 114 112 110 110 110 106 101 97 90 78 69 68 62 45 49 34 33 27 19 12 6 5 9 12 5
349 144 118 110 107 108 113 116 115 116 120 123 125 126 127 126 122 116 113 112 108 106 108 109 107 106 102 89 73 57 48 49 49 46 39 34 24 16 15 15 11 5 3 4
100 111 117 114 112 118 123 124 122 123 125 126 126 123 121 119 116 114 115 112 104 99 105 109 111 113 106 92 89 88 78 35 10 38 40 35 24 18 19 18 19 14 10 5
114 116 119 118 120 124 127 129 127 126 126 126 124 124 124 123 119 111 100 88 86 92 104 112 114 114 103 84 67 73 79 89 82 36 36 27 26 24 25 26 29 26 21 14
81 89 100 111 118 121 125 128 127 125 125 126 130 133 130 123 116 109 104 101 98 96 99 108 110 109 94 77 59 57 58 49 45 41 41 28 15 27 27 29 32 36 27 20
81 87 93 100 111 119 123 125 124 123 127 133 134 125 115 113 111 108 107 109 108 102 96 96 102 109 93 71 26 72 55 50 47 41 40 41 31 33 29 28 29 32 31 26
93 96 100 103 108 113 117 120 122 124 127 127 123 118 115 114 113 107 100 88 78 89 104 113 124 102 99 73 326 54 49 40 38 39 38 35 36 34 31 30 29 28 28 26
106 109 111 109 111 114 119 123 125 126 128 129 125 120 117 118 117 115 113 104 96 99 108 125 108 100 87 72 305 45 49 44 43 40 35 34 35 35 32 30 30 28 26 24
123 117 116 117 119 119 123 128 130 130 129 127 124 124 125 125 117 97 84 98 112 130 123 101 84 69 49 325 59 57 55 51 47 43 39 36 34 33 33 31 30 27 25 23
132 124 124 128 129 128 129 128 127 126 126 127 129 135 133 129 129 124 115 114 123 121 89 81 92 100 296 46 66 63 58 51 47 45 43 40 39 36 32 29 29 28 26 23
145 135 128 130 134 137 134 128 123 120 118 115 117 125 130 127 110 95 100 103 104 106 94 101 116 226 295 70 67 62 58 49 46 45 41 39 39 38 34 28 27 29 29 28
153 146 142 145 148 142 136 134 133 134 126 114 117 127 128 122 117 110 113 120 130 119 110 120 160 277 69 71 69 65 59 46 33 35 47 39 37 37 33 31 29 30 31 28
154 157 157 161 151 142 145 152 154 151 141 129 123 121 115 114 119 122 122 127 127 123 125 132 132 124 84 80 73 67 68 70 62 52 45 40 39 38 35 32 37 36 34 32
157 156 157 157 159 161 155 151 148 153 152 138 129 128 130 132 133 130 128 131 135 129 123 120 107 96 90 85 80 74 67 61 54 51 50 45 41 38 37 40 40 38 38 40